Location: Newark
(37.9128°N, 122.4756°W)
Time: 12:28:21
(UTC+00:00)

N. Korean satellite - Visible Passes

Search period start: 28 February 2021 00:00
Search period end: 10 March 2021 00:00
Orbit: 451 x 503 km, 97.2° (Epoch: 27 February)

Date Brightness Start Highest point End Pass type
(mag) Time Alt. Az. Time Alt. Az. Time Alt. Az.
28 Feb 8.3 13:06:07 10° NNE 13:09:20 33° E 13:12:35 10° SSE visible
01 Mar 9.7 12:40:22 10° ENE 12:42:29 15° E 12:44:38 10° SE visible
02 Mar 6.5 13:45:39 10° N 13:49:09 63° WNW 13:52:42 10° SSW visible
03 Mar 7.4 13:18:58 10° NNE 13:22:27 51° E 13:25:57 10° S visible
04 Mar 9.1 12:52:46 10° NE 12:55:38 22° E 12:58:30 10° SSE visible
05 Mar 10.2 12:28:17 10° E 12:28:43 10° E 12:29:10 10° E visible
05 Mar 7.0 13:58:49 10° N 14:02:11 40° WNW 14:05:35 10° SW visible
06 Mar 6.6 13:31:54 10° NNE 13:35:29 82° E 13:39:06 10° S visible
07 Mar 8.4 13:05:26 10° NNE 13:08:43 33° E 13:12:01 10° SSE visible
08 Mar 9.8 12:39:38 10° NE 12:41:50 15° E 12:44:03 10° SE visible
09 Mar 6.5 13:44:55 10° N 13:48:29 64° WNW 13:52:05 10° SSW visible
